BREEZE-M DEB (TANK), 47243

Orbit data source: Space-Track

BREEZE-M DEB (TANK), 47243 is space debris in HEO originally from a launch on Mon, 14 Dec 2020 UTC launched from the Plesetsk Missile And Space Complex (PKMTR). Debris objects in space refer to the collection of defunct objects orbiting the Earth. Examples of debris include non-operational satellites, rocket bodies, and fragments generated from explosions, collisions, or faulty payload assembly.

Loading next visibility...
Identifier
47243, 2020-097B
Orbit
HEO
Country
Flag of CISCIS
Related business
Manufacturer
Khrunichev
Mission
Spacecraft
Bus & Motor
BRIZ TANK, Unknown motor
Mass
~1,000 kg wet, 1,000 kg dry
Launch date (UTC)
2020-12-14 (6 years ago)
Launch vehicle
Unknown
Launch site
Plesetsk Missile And Space Complex (PKMTR)
Object type
Payload
Rocket body
Debris
Shape & HBR
Torus, Unknown HBR
Radar Cross Section
8.218 m², Large (>1 m²)

Expand to show TLE details & history
Last TLE update: 3 days ago

TLE from 3 days ago
0 BREEZE-M DEB (TANK)
1 47243U 20097B   26170.82399803  .00000936  00000-0  76395-3 0  9997
2 47243  58.3742 107.5593 7313982 111.0765 336.4977  2.20608822 44260
Epoch: 2026-06-19T19:46Z
TLE epoch observation values (Epoch: 2026-06-19T19:46:33.429Z)
Latitude
Longitude
-97.15674°
Altitude
9,345.598 km
Speed
5.892 km/s
True Right ascension
07h 10m 07s
True Declination
0° 00' 00"
Sunlit
Object was in daylight at epoch
Visualization orbit readout
Latitude
Unknown
Longitude
Unknown
Altitude
Unknown
Speed
Unknown
Apparent Right ascension
Unknown
Apparent Declination
Unknown
Sunlit
N/A
Visualization observer readout
Local Sidereal Time
21:24:03
Azimuth
Unknown
Elevation
Unknown
Doppler factor
Unknown
Orbital elements
Apogee altitude
36,777.943 km
Perigee altitude
316.915 km
Semi-major axis
24,925.566 km
Eccentricity
0.7314
Inclination
58.3742°
RAAN
107.5593°
Arg. of periapsis
111.0765°
True anomaly
248.95539°
Mean anomaly
336.4977°
Eccentric anomaly
300.32571°
Mean motion
0.55154 °/min
Orbital period
652.72 mins
BSTAR
0.00076395
Loading maneuver chart data...
Computing Atmospheric mass density...
Loading historical data...
Loading historical data...
Loading historical data...
Loading historical data...
Loading historical data...
Loading historical data...
Loading historical data...
Other satellites on launch #97 in the year 2020 (2020-12-14 UTC)

Documentation

Showing up to 5 results
|